Stations météo

réclame
Mon MeteoGroup
Roth, Allemagne (10765): Température de l'air & dewpoint: 19.09.2018 09:00:00 - 25.09.2018 09:00:00 (CEST)Roth, Allemagne (10765): Température de l'air 5cm & Température de l'air -5cm: 19.09.2018 09:00:00 - 25.09.2018 09:00:00 (CEST)Roth, Allemagne (10765): Température de l'air -20cm & Température de l'air -100cm: 19.09.2018 09:00:00 - 25.09.2018 09:00:00 (CEST)Roth, Allemagne (10765): Vitesse du vent & gusts: 19.09.2018 09:00:00 - 25.09.2018 09:00:00 (CEST)Roth, Allemagne (10765): Direction du vent: 19.09.2018 09:00:00 - 25.09.2018 09:00:00 (CEST)Roth, Allemagne (10765): reduced air pressure: 19.09.2018 09:00:00 - 25.09.2018 09:00:00 (CEST)Roth, Allemagne (10765): visibility: 19.09.2018 09:00:00 - 25.09.2018 09:00:00 (CEST)Roth, Allemagne (10765): Quantités de précipitations: 19.09.2018 09:00:00 - 25.09.2018 09:00:00 (CEST)
Date & Time tt [°C] td [°C] tt 5cm [°C] tt -5cm [°C] tt -20cm [°C] tt -100cm [°C] ff [km/h] ff [knt] fx [km/h] fx [knt] dd ppp [hPa] vv [km] rr [mm]
25.09.2018 09:00:00 4,4 2,5 4,6 7,4 10,8 18,3 0 0 8 4 N 1039,6 26 0,0
25.09.2018 08:00:00 1,4 0,6 0,2 6,1 11,1 18,3 0 0 0 0 N 1039,5 28 0,0
25.09.2018 07:00:00 0,8 -0,3 -1,2 6,4 11,4 18,3 0 0 0 0 N 1039,1 31 0,0
25.09.2018 06:00:00 1,4 0,5 -0,4 6,8 11,7 18,3 0 0 4 2 N 1038,6 31 0,0
25.09.2018 05:00:00 2,3 1,4 1,1 7,2 12,1 18,3 0 0 5 3 N 1038,1 30 0,0
25.09.2018 04:00:00 3,0 2,0 1,6 7,7 12,4 18,4 3 2 5 3 SSW 1037,8 29 0,0
25.09.2018 03:00:00 2,8 0,9 1,1 8,1 12,7 18,4 3 1 7 4 WSW 1037,7 42 0,0
25.09.2018 02:00:00 5,0 2,8 3,4 8,5 13,0 18,4 5 3 12 6 WNW 1037,0 44 0,0
25.09.2018 01:00:00 4,7 2,7 3,0 9,0 13,4 18,4 5 3 9 5 W 1036,5 42 0,0
25.09.2018 00:00:00 6,0 2,7 4,2 9,5 13,7 18,5 6 4 11 6 WSW 1035,9 48 0,0
24.09.2018 23:00:00 7,5 2,6 5,9 10,0 14,0 18,5 7 4 18 10 SW 1035,0 49 0,0
24.09.2018 22:00:00 8,6 2,4 6,8 10,4 14,4 18,5 13 7 18 10 W 1034,4 52 0,0
24.09.2018 21:00:00 8,8 2,1 6,4 10,8 14,8 18,5 12 7 19 11 W 1033,8 64 0,0
24.09.2018 20:00:00 9,6 1,9 7,3 11,5 15,2 18,6 12 7 22 12 W 1033,2 69 0,0
24.09.2018 19:00:00 10,8 1,4 9,2 12,4 15,5 18,6 12 7 28 15 WNW 1032,3 63 0,0
24.09.2018 18:00:00 12,1 0,8 10,9 13,6 15,7 18,6 22 12 35 19 WNW 1031,7 24 0,0
24.09.2018 17:00:00 12,6 1,4 12,8 14,8 15,6 18,6 18 10 38 21 NW 1031,6 51 0,0
24.09.2018 16:00:00 13,6 1,8 16,5 15,8 15,3 18,6 22 12 39 21 NW 1031,5 30 0,0
24.09.2018 15:00:00 12,6 2,1 16,3 15,0 15,1 18,7 16 9 36 20 NNW 1031,8 40 0,0
24.09.2018 14:00:00 11,8 1,8 13,4 14,9 14,8 18,7 22 12 51 27 NW 1032,3 41 0,0
24.09.2018 13:00:00 10,7 2,2 11,7 15,2 14,5 18,7 22 12 43 23 WNW 1032,4 47 0,0
24.09.2018 12:00:00 10,1 3,2 11,0 14,0 14,2 18,7 20 11 41 22 WNW 1032,3 51 0,0
24.09.2018 11:00:00 9,3 3,7 10,6 13,4 14,0 18,7 24 13 39 21 WNW 1031,8 40 0,0
24.09.2018 10:00:00 9,2 4,5 11,0 12,1 14,0 18,7 26 14 39 21 WNW 1031,1 34 0,0
24.09.2018 09:00:00 7,5 4,5 7,5 10,6 14,1 18,7 20 11 33 18 WNW 1030,4 36 0,0
24.09.2018 08:00:00 7,3 4,7 7,0 10,3 14,4 18,7 19 10 29 16 WNW 1029,1 45 0,0
24.09.2018 07:00:00 6,9 4,8 6,3 10,4 14,8 18,8 17 9 28 15 WNW 1028,5 44 0,0
24.09.2018 06:00:00 7,3 5,1 7,0 11,0 15,1 18,8 14 8 28 15 WNW 1027,4 58 0,0
24.09.2018 05:00:00 7,5 5,0 7,1 11,5 15,4 18,8 20 11 28 15 WNW 1026,7 70 0,0
24.09.2018 04:00:00 7,6 5,1 7,2 11,8 15,7 18,8 15 8 26 14 WNW 1026,1 57 0,0
24.09.2018 03:00:00 7,8 5,4 7,6 12,2 16,1 18,8 14 8 27 15 W 1024,8 70 0,0
24.09.2018 02:00:00 8,0 5,6 7,6 12,6 16,5 18,8 13 7 36 20 NNW 1023,3 70 0,1
24.09.2018 01:00:00 8,7 7,3 8,5 13,2 17,0 18,8 14 8 36 19 NW 1020,8 9 0,4
24.09.2018 00:00:00 9,2 7,0 8,9 13,8 17,4 18,9 23 12 52 28 NW 1018,1 62 0,0
23.09.2018 23:00:00 10,5 8,8 10,0 14,9 17,8 18,9 37 20 69 37 NW 1014,7 39 0,2
23.09.2018 22:00:00 13,1 11,2 12,6 16,0 18,2 18,9 27 15 53 28 WNW 1011,0 25 0,7
23.09.2018 21:00:00 13,8 13,0 13,3 16,5 18,6 18,9 22 12 40 21 W 1008,6 4,3 4,3
23.09.2018 20:00:00 14,2 13,5 13,7 17,3 18,9 18,9 20 11 106 57 W 1007,1 14 7,1
23.09.2018 19:00:00 23,2 14,5 22,3 19,2 18,9 18,9 42 23 81 44 WSW 1002,8 68 0,0
23.09.2018 18:00:00 23,6 14,4 23,0 19,6 18,8 19,0 42 23 75 41 WSW 1002,9 56 0,0
23.09.2018 17:00:00 23,5 14,2 23,3 20,4 18,5 19,0 44 24 87 47 WSW 1004,6 52 0,0
23.09.2018 16:00:00 23,9 14,7 24,2 20,5 18,1 19,0 35 19 60 32 WSW 1006,2 32 0,0
23.09.2018 15:00:00 21,9 15,1 22,2 19,9 17,7 19,0 26 14 51 28 WSW 1008,4 70 0,0
23.09.2018 14:00:00 20,2 15,3 20,8 19,4 17,3 19,0 30 16 48 26 WSW 1010,3 69 0,0
23.09.2018 13:00:00 19,8 15,2 20,4 18,8 16,8 19,0 24 13 43 23 WSW 1011,6 64 0,0
23.09.2018 12:00:00 17,8 14,1 18,6 17,9 16,4 19,0 21 11 35 19 WSW 1012,5 64 0,0
23.09.2018 11:00:00 15,4 13,5 15,7 16,1 16,2 19,0 18 10 28 15 SW 1013,5 41 0,0
23.09.2018 10:00:00 13,3 12,0 13,3 14,6 16,2 19,0 14 8 21 12 SW 1014,5 26 0,1
23.09.2018 09:00:00 11,5 11,0 11,7 13,9 16,3 19,1 9 5 16 8 SSE 1015,3 6 0,7
23.09.2018 08:00:00 10,4 10,0 10,6 13,7 16,4 19,1 8 4 11 6 SE 1016,4 2,8 1,2
23.09.2018 07:00:00 10,3 9,5 10,2 13,8 16,6 19,1 9 5 18 10 S 1017,2 3,4 0,5
23.09.2018 06:00:00 11,1 8,3 10,3 14,1 16,8 19,1 6 3 17 9 S 1017,9 45 0,1
23.09.2018 05:00:00 10,9 7,5 9,9 14,3 17,1 19,1 8 4 13 7 S 1019,1 42 0,0
23.09.2018 04:00:00 10,1 8,4 9,9 14,5 17,3 19,1 4 2 11 6 SSE 1020,1 46 0,0
23.09.2018 03:00:00 10,0 9,0 10,1 14,8 17,5 19,1 4 2 6 4 SSE 1020,3 32 0,2
23.09.2018 02:00:00 10,5 8,7 10,2 15,1 17,8 19,1 4 2 7 4 S 1020,9 14 0,2
23.09.2018 01:00:00 10,7 8,2 10,4 15,5 18,1 19,2 4 2 7 4 NE 1021,1 37 0,1
23.09.2018 00:00:00 12,0 6,7 11,5 15,9 18,4 19,2 7 4 10 5 SSW 1020,9 63 0,0
22.09.2018 23:00:00 12,8 6,0 12,2 16,3 18,7 19,2 4 2 9 5 W 1021,1 69 0,0
22.09.2018 22:00:00 12,9 5,6 12,1 16,8 19,1 19,2 9 5 22 12 NNW 1020,7 59 0,1
22.09.2018 21:00:00 14,3 3,3 13,9 17,9 19,3 19,2 6 4 8 4 W 1020,9 67 0,0
22.09.2018 20:00:00 15,2 2,9 14,6 18,6 19,5 19,2 5 3 11 6 WSW 1020,0 70 0,0
22.09.2018 19:00:00 15,9 2,1 15,4 19,6 19,6 19,3 8 4 21 11 W 1019,7 67 0,0
22.09.2018 18:00:00 16,7 1,9 16,8 20,7 19,4 19,3 15 8 31 17 W 1020,2 70 0,0
22.09.2018 17:00:00 17,6 1,7 19,3 21,6 19,0 19,3 17 9 31 17 W 1020,6 54 0,0
22.09.2018 16:00:00 17,8 1,6 20,4 21,8 18,3 19,3 16 8 30 16 SW 1020,6 52 0,0
22.09.2018 15:00:00 17,2 2,5 20,6 21,4 17,6 19,3 16 9 36 19 WSW 1021,6 41 0,0
22.09.2018 14:00:00 16,5 2,2 19,1 19,9 16,9 19,3 20 11 30 16 WSW 1022,4 48 0,0
22.09.2018 13:00:00 15,1 4,1 17,8 17,4 16,5 19,3 14 8 30 16 WSW 1023,1 40 0,0
22.09.2018 12:00:00 13,9 5,7 15,0 16,1 16,2 19,3 19 11 30 16 WSW 1023,7 54 0,0
22.09.2018 11:00:00 12,8 5,5 13,5 14,8 16,0 19,3 16 9 30 16 WSW 1024,0 49 0,0
22.09.2018 10:00:00 12,4 6,1 12,8 13,7 16,0 19,3 14 8 36 19 W 1024,3 52 0,0
22.09.2018 09:00:00 11,4 6,2 11,2 12,7 16,2 19,3 13 7 21 11 WSW 1024,0 48 0,0
22.09.2018 08:00:00 10,5 5,7 9,6 12,2 16,5 19,3 10 6 19 10 SW 1023,5 49 0,0
22.09.2018 07:00:00 9,8 5,7 8,5 12,4 16,9 19,3 8 4 18 10 SW 1023,4 49 0,0
22.09.2018 06:00:00 10,2 5,6 9,1 12,7 17,3 19,3 10 5 17 9 SW 1023,2 57 0,0
22.09.2018 05:00:00 10,5 6,2 9,2 13,2 17,7 19,3 11 6 17 9 SW 1022,8 57 0,0
22.09.2018 04:00:00 11,0 6,8 9,6 13,8 18,1 19,3 10 6 16 9 WSW 1022,5 54 0,0
22.09.2018 03:00:00 11,7 7,0 10,2 14,6 18,5 19,3 13 7 34 18 W 1021,9 48 0,0
22.09.2018 02:00:00 12,0 7,9 10,9 15,1 18,9 19,3 18 10 28 15 W 1021,2 54 0,0
22.09.2018 01:00:00 11,9 9,0 11,1 15,6 19,4 19,3 18 10 32 17 W 1020,2 29 0,0
22.09.2018 00:00:00 11,9 9,4 11,1 16,2 19,9 19,3 19 11 29 16 WNW 1019,5 21 0,0
21.09.2018 23:00:00 11,7 9,6 10,9 16,8 20,4 19,3 13 7 19 11 W 1018,6 43 0,0
21.09.2018 22:00:00 12,2 9,7 11,3 17,6 21,0 19,3 13 7 26 14 W 1018,0 63 0,0
21.09.2018 21:00:00 12,6 9,7 11,8 18,7 21,5 19,3 16 9 30 16 W 1017,1 69 0,2
21.09.2018 20:00:00 13,2 11,7 12,9 20,0 22,0 19,3 23 13 54 29 NW 1015,3 56 0,3
21.09.2018 19:00:00 18,0 15,3 16,8 22,1 22,3 19,3 32 17 56 30 W 1011,2 6 0,4
21.09.2018 18:00:00 21,1 14,3 20,8 23,0 22,5 19,3 14 8 46 25 SSW 1009,3 34 0,0
21.09.2018 17:00:00 23,6 13,1 23,4 24,5 22,4 19,3 22 12 58 31 WSW 1008,6 36 0,1
21.09.2018 16:00:00 27,1 11,5 27,7 26,0 22,0 19,3 24 13 57 31 W 1008,0 39 0,0
21.09.2018 15:00:00 27,4 12,2 28,0 26,8 21,3 19,3 20 11 38 20 SW 1008,2 39 0,0
21.09.2018 14:00:00 27,7 13,1 30,3 26,4 20,5 19,3 16 9 31 17 SW 1008,9 30 0,0
21.09.2018 13:00:00 27,0 12,4 29,1 25,1 19,7 19,3 16 8 26 14 SW 1009,5 30 0,0
21.09.2018 12:00:00 24,1 13,3 24,6 23,4 19,0 19,3 14 7 28 15 SSW 1010,7 32 0,0
21.09.2018 11:00:00 22,9 13,3 24,7 21,3 18,5 19,3 19 11 28 15 SW 1011,1 33 0,0
21.09.2018 10:00:00 21,1 13,3 22,4 18,9 18,2 19,3 8 4 13 7 SSW 1011,8 32 0,0
21.09.2018 09:00:00 18,3 13,8 18,0 16,6 18,2 19,3 6 4 14 8 SSE 1012,4 20 0,0
21.09.2018 08:00:00 14,9 12,8 13,0 15,3 18,4 19,3 11 6 14 8 SSE 1013,2 13 0,0
21.09.2018 07:00:00 13,4 12,2 11,4 15,4 18,8 19,3 4 2 10 6 S 1013,4 9 0,0
21.09.2018 06:00:00 13,9 12,7 11,5 15,8 19,1 19,3 5 3 10 5 ESE 1013,8 14 0,0
21.09.2018 05:00:00 14,1 12,9 11,6 16,2 19,5 19,3 4 2 7 4 SSE 1014,5 15 0,0
21.09.2018 04:00:00 15,0 13,0 12,3 16,7 19,8 19,3 6 3 8 5 SE 1014,6 21 0,0
21.09.2018 03:00:00 15,0 12,5 12,4 17,2 20,2 19,3 7 4 16 8 SSE 1015,0 25 0,0
21.09.2018 02:00:00 15,2 12,7 12,7 17,8 20,6 19,3 8 4 16 8 S 1015,3 25 0,0
21.09.2018 01:00:00 16,1 12,9 13,3 18,4 21,0 19,3 9 5 14 8 SSE 1015,6 27 0,0
21.09.2018 00:00:00 17,1 13,1 14,3 19,0 21,5 19,3 6 3 9 5 SE 1016,0 29 0,0
20.09.2018 23:00:00 18,1 13,1 15,2 19,7 21,9 19,3 5 3 9 5 SSE 1016,3 32 0,0
20.09.2018 22:00:00 18,5 13,7 15,6 20,6 22,3 19,3 8 4 14 8 SSE 1016,4 31 0,0
20.09.2018 21:00:00 19,5 13,7 16,8 21,6 22,8 19,3 9 5 15 8 SE 1016,4 37 0,0
20.09.2018 20:00:00 21,9 14,1 18,8 22,8 23,1 19,3 9 5 14 8 SSE 1016,1 39 0,0
20.09.2018 19:00:00 25,1 12,8 22,9 24,1 23,3 19,4 8 5 16 9 SSE 1015,6 46 0,0
20.09.2018 18:00:00 27,0 12,2 25,6 25,5 23,2 19,4 10 6 23 12 S 1015,8 48 0,0
20.09.2018 17:00:00 27,5 11,4 28,3 26,9 22,7 19,4 13 7 22 12 S 1016,0 36 0,0
20.09.2018 16:00:00 27,6 11,2 29,6 27,3 22,1 19,4 12 7 23 12 SW 1016,5 38 0,0
20.09.2018 15:00:00 27,9 12,3 30,0 27,2 21,3 19,4 13 7 26 14 SSW 1017,1 38 0,0
20.09.2018 14:00:00 27,5 11,7 28,6 26,4 20,5 19,4 18 10 29 16 SW 1017,8 37 0,0
20.09.2018 13:00:00 26,6 13,7 28,3 24,9 19,6 19,4 14 7 26 14 S 1018,3 37 0,0
20.09.2018 12:00:00 25,2 14,6 27,1 23,7 18,8 19,4 8 4 13 7 S 1019,1 33 0,0
20.09.2018 11:00:00 22,5 14,7 24,7 21,5 18,2 19,4 7 4 12 6 SE 1019,8 27 0,0
20.09.2018 10:00:00 19,9 13,9 21,1 19,0 17,9 19,4 5 3 13 7 SSE 1020,4 24 0,0
20.09.2018 09:00:00 17,4 14,0 16,8 16,5 17,8 19,4 10 5 14 8 SSE 1020,5 18 0,0
20.09.2018 08:00:00 13,9 12,3 13,0 15,1 18,0 19,4 0 0 5 3 N 1021,1 18 0,0
20.09.2018 07:00:00 13,4 12,7 12,0 15,2 18,3 19,4 5 3 9 5 SSE 1020,9 14 0,0
20.09.2018 06:00:00 13,7 12,7 12,0 15,5 18,6 19,4 5 3 9 5 SE 1020,6 17 0,0
20.09.2018 05:00:00 13,5 12,4 12,0 15,8 18,9 19,4 0 0 5 3 N 1020,9 19 0,0
20.09.2018 04:00:00 14,3 12,8 12,7 16,1 19,2 19,3 4 2 7 4 SE 1020,6 24 0,0
20.09.2018 03:00:00 14,0 12,5 12,2 16,5 19,5 19,3 4 2 6 3 SE 1020,9 24 0,0
20.09.2018 02:00:00 14,0 12,6 12,7 16,9 19,9 19,3 0 0 9 5 N 1021,2 26 0,0
20.09.2018 01:00:00 15,8 13,5 14,0 17,4 20,2 19,3 3 2 5 3 S 1020,8 29 0,0
20.09.2018 00:00:00 16,2 13,6 14,4 17,9 20,6 19,3 4 2 8 4 SSE 1020,9 35 0,0
19.09.2018 23:00:00 16,2 14,4 14,4 18,5 21,0 19,3 6 3 10 6 S 1020,8 29 0,0
19.09.2018 22:00:00 17,0 14,4 14,9 19,2 21,4 19,3 6 3 19 10 S 1020,7 36 0,0
19.09.2018 21:00:00 18,2 14,9 15,9 20,0 21,8 19,3 10 5 16 9 SSE 1020,4 36 0,0
19.09.2018 20:00:00 21,0 14,7 18,9 21,0 22,1 19,3 11 6 16 9 SSE 1019,6 43 0,0
19.09.2018 19:00:00 22,8 15,4 20,2 22,0 22,3 19,3 6 4 12 7 SE 1019,1 49 0,0
19.09.2018 18:00:00 25,0 14,6 23,2 23,1 22,3 19,3 9 5 14 8 ESE 1018,5 45 0,0
19.09.2018 17:00:00 26,2 13,0 26,0 24,5 22,0 19,3 5 3 15 8 SSW 1018,8 45 0,0
19.09.2018 16:00:00 25,3 13,3 26,7 24,9 21,5 19,3 7 4 13 7 SE 1019,1 41 0,0
19.09.2018 15:00:00 23,4 16,5 24,3 24,1 21,1 19,3 6 3 10 5 SSE 1019,7 44 0,0
19.09.2018 14:00:00 20,6 17,6 19,9 22,4 20,8 19,3 6 4 16 8 W 1020,4 35 0,6
19.09.2018 13:00:00 21,1 14,5 21,9 23,8 20,3 19,3 7 4 23 13 SW 1020,9 41 0,0
19.09.2018 12:00:00 20,8 15,0 25,0 22,7 19,8 19,3 4 2 10 5 WNW 1021,4 33 0,0
19.09.2018 11:00:00 17,7 15,4 18,0 19,5 19,7 19,3 4 2 13 7 ESE 1021,8 30 0,0
19.09.2018 10:00:00 17,6 14,9 17,3 19,6 19,7 19,3 10 6 24 13 SW 1021,4 33 0,0
19.09.2018 09:00:00 16,1 15,0 15,9 17,8 19,8 19,3 16 8 21 12 WSW 1021,2 27 0,1

tt = Température de l'air
td = dewpoint
tt 5cm = Température de l'air 5cm
tt -5cm = Température de l'air -5cm
tt -20cm = Température de l'air -20cm
tt -100cm = Température de l'air -100cm
ff = Vitesse du vent
fx = gusts
dd = Direction du vent
ppp = reduced air pressure
vv = visibility
rr = Quantités de précipitations

stations d'obs. à proximité